#timestamp,LO_Frequency,Hit 
1499594415.2,286046929.5,N
1499594435.0,286046931.6,N
1499594435.9,286046931.6,N
1499594455.8,286046929.9,N
1499594475.6,286046930.2,N
1499594495.4,286046930.5,N
1499594515.2,286046932.3,N
1499594535.1,286046930.1,N
1499594536.0,286046930.1,N
1499594555.8,286046931.8,N
1499594575.6,286046932.2,N
1499594595.5,286046929.6,N
1499594615.3,286046931.7,N
1499594635.1,286046932.4,N
1499594655.9,286046928.1,N
1499594675.7,286046930.3,N
1499594695.5,286046926.1,N
1499594715.4,286046926.9,N
1499594735.2,286046928.8,N
1499594755.0,286046926.4,N
1499594755.9,286046926.4,N
1499594775.8,286046927.2,N
1499594795.6,286046927.7,N
1499594815.4,286046927.9,N
1499594835.2,286046928.0,N
1499594855.1,286046929.3,N
1499594856.0,286046929.3,N
1499594875.8,286046933.8,N
1499594895.6,286046932.9,N
1499594915.5,286046934.4,N
1499594935.3,286046936.2,N
1499594955.1,286046938.8,N
1499594975.9,286046937.1,N
1499594995.7,286046936.8,N
1499595015.5,286046936.8,N
1499595035.4,286046935.3,N
1499595055.2,286046933.4,N
1499595075.0,286046934.0,N
1499595075.9,286046934.0,N
1499595095.8,286046931.5,N
1499595115.6,286046931.2,N
1499595135.4,286046930.1,N
1499595155.3,286046929.4,N
1499595175.1,286046931.1,N
1499595176.0,286046931.1,N
1499595195.8,286046933.2,N
1499595215.7,286046934.7,N
1499595235.5,286046936.2,N
1499595255.3,286046938.7,N
1499595275.1,286046937.9,N
1499595295.9,286046936.3,N
1499595315.7,286046934.6,N
1499595335.5,286046936.7,N
1499595355.4,286046934.3,N
1499595375.2,286046934.2,N
1499595395.0,286046937.2,N
1499595395.9,286046937.2,N
1499595415.8,286046934.4,N
1499595435.6,286046935.1,N
1499595455.4,286046935.4,N
1499595475.3,286046935.2,N
1499595495.1,286046934.1,N
1499595496.0,286046934.1,N
1499595515.8,286046934.9,N
1499595535.7,286046933.0,N
1499595555.5,286046934.0,N
1499595575.3,286046931.4,N
1499595595.1,286046934.0,N
1499595615.9,286046933.6,N
1499595635.7,286046933.3,N
1499595655.5,286046931.5,N
1499595675.4,286046929.6,N
1499595695.2,286046930.1,N
1499595715.0,286046931.8,N
1499595715.9,286046931.8,N
1499595735.8,286046930.9,N
1499595755.6,286046931.0,N
1499595775.4,286046933.3,N
1499595795.3,286046932.6,N
1499595815.1,286046931.4,N
1499595816.0,286046931.4,N
1499595835.8,286046933.3,N
1499595855.7,286046934.7,N
1499595875.5,286046936.7,N
1499595895.3,286046936.5,N
1499595915.1,286046936.3,N
1499595935.9,286046938.7,N
1499595955.7,286046938.4,N
1499595975.6,286046936.2,N
1499595995.4,286046935.8,N
1499596015.2,286046934.6,N
1499596035.1,286046934.9,N
1499596036.0,286046934.9,N
1499596055.8,286046935.4,N
1499596075.6,286046932.6,N
1499596095.5,286046933.1,N
1499596115.3,286046932.7,N
1499596135.1,286046933.8,N
1499596155.9,286046933.8,N
1499596175.7,286046931.0,N
1499596195.5,286046933.6,N
1499596215.3,286046932.8,N
1499596235.2,286046933.6,N
1499596255.0,286046933.1,N
1499596255.9,286046933.1,N
1499596275.7,286046932.7,N
1499596295.6,286046933.9,N
1499596315.4,286046933.6,N
1499596335.2,286046931.4,N
1499596355.1,286046930.9,N
1499596356.0,286046930.9,N
1499596375.8,286046933.7,N
1499596395.6,286046930.9,N
1499596415.5,286046932.8,N
1499596435.3,286046933.8,N
1499596455.1,286046933.7,N
1499596475.9,286046935.6,N
1499596495.7,286046935.6,N
1499596515.5,286046935.2,N
1499596535.4,286046935.5,N
1499596555.2,286046933.4,N
1499596575.0,286046933.5,N
1499596575.9,286046933.5,N
1499596595.8,286046931.5,N
1499596615.6,286046933.9,N
1499596635.4,286046931.7,N
1499596655.2,286046933.7,N
1499596675.1,286046933.5,N
1499596676.0,286046933.5,N
1499596695.8,286046931.3,N
1499596715.6,286046930.9,N
1499596735.5,286046933.6,N
1499596755.3,286046931.3,N
1499596775.1,286046932.1,N
1499596795.9,286046930.9,N
1499596815.7,286046933.9,N
1499596835.5,286046933.5,N
1499596855.4,286046931.5,N
1499596875.2,286046932.2,N
1499596895.0,286046931.6,N
1499596895.9,286046931.6,N
1499596915.8,286046931.3,N
1499596935.6,286046931.3,N
1499596955.4,286046932.4,N
1499596975.2,286046930.1,N
1499596995.1,286046928.3,N
1499596996.0,286046928.3,N
1499597015.8,286046929.8,N
1499597035.6,286046931.2,N
1499597055.5,286046933.4,N
1499597075.3,286046934.0,N
1499597095.1,286046933.0,N
1499597115.9,286046935.6,N
1499597135.7,286046935.5,N
1499597155.5,286046932.8,N
1499597175.4,286046932.7,N
1499597195.2,286046933.8,N
1499597215.0,286046933.5,N
1499597215.9,286046933.5,N
1499597235.8,286046933.5,N
1499597255.6,286046931.1,N
1499597275.4,286046931.1,N
1499597295.3,286046933.5,N
1499597315.1,286046931.1,N
1499597316.0,286046931.1,N
1499597335.8,286046931.0,N
1499597355.7,286046935.1,N
1499597375.5,286046934.3,N
1499597395.3,286046936.8,N
1499597415.1,286046934.8,N
1499597435.9,286046933.0,N
1499597455.7,286046933.9,N
1499597475.5,286046933.6,N
1499597495.4,286046930.9,N
1499597515.2,286046932.1,N
1499597535.0,286046932.9,N
1499597535.9,286046932.9,N
1499597555.8,286046933.9,N
1499597575.6,286046933.3,N
1499597595.4,286046930.9,N
1499597615.3,286046932.0,N
1499597635.1,286046931.8,N
1499597636.0,286046931.8,N
1499597655.8,286046931.5,N
1499597675.7,286046933.4,N
1499597695.5,286046933.6,N
1499597715.3,286046931.3,N
1499597735.1,286046933.5,N
1499597755.9,286046931.3,N
1499597775.7,286046931.2,N
1499597795.5,286046932.8,N
1499597815.4,286046932.6,N
1499597835.2,286046933.7,N
1499597855.0,286046933.4,N
1499597855.9,286046933.4,N
1499597875.8,286046935.5,N
1499597895.6,286046930.9,N
1499597915.4,286046932.5,N
1499597935.3,286046934.0,N
1499597955.1,286046931.6,N
1499597956.0,286046931.6,N
1499597975.8,286046931.8,N
1499597995.7,286046933.9,N
